Homer, AK

8:39 AM AKDT on October 22, 2017 (GMT -0800)
Homer

Weather History for PAHO - February, 2013

Change the Weather History Date:

Sunday, February 3, 2013

  Actual Average Record
Temperature  
Mean Temperature 38 °F -  
Max Temperature 43 °F 30 °F 49 °F (1982)
Min Temperature 32 °F 18 °F -16 °F (1947)
Degree Days  
Heating Degree Days 28    
Moisture  
Dew Point 29 °F    
Average Humidity 70    
Maximum Humidity 85    
Minimum Humidity 60    
Precipitation  
Precipitation 0.00 in - - ()
Sea Level Pressure  
Sea Level Pressure 29.29 in    
Wind  
Wind Speed 4 mph (ESE)    
Max Wind Speed 12 mph    
Max Gust Speed 22 mph    
Visibility 10 miles    
Events      
Averages and records for this station are not official NWS values.
T = Trace of Precipitation, MM = Missing Value Source: NWS Daily Summary

Daily Weather History Graph

Daily Weather History Graph

Search for Another Location

Airport or City:

Trip Planner

Search our weather history database for the weather conditions in past years. The results will help you decide how hot, cold, wet, or windy it might be!

Date:

Astronomy

Feb. 03, 2013 Rise Set
Actual Time 9:11 AM AKST 5:28 PM AKST
Civil Twilight 8:25 AM AKST 6:14 PM AKST
Nautical Twilight 7:36 AM AKST 7:04 PM AKST
Astronomical Twilight 6:48 AM AKST 7:52 PM AKST
Moon 2:59 AM AKST (2/3) 11:00 AM AKST (2/3)
Length of Visible Light 9h 48m
Length of Day
8h 16m
Waning Gibbous, 47% of the Moon is Illuminated
Feb 3
Waning Gibbous
Feb 9
New
Feb 17
First Quarter
Feb 25
Full
Mar 4
Last Quarter

Hourly Weather History & Observations

Time (AKST) Temp. Windchill Dew Point Humidity Pressure Visibility Wind Dir Wind Speed Gust Speed Precip Events Conditions
12:53 AM 41.0 °F 37.1 °F 32.0 °F 70% 29.20 in 10.0 mi NNE 5.8 mph - N/A   Overcast
1:53 AM 39.9 °F 34.5 °F 30.9 °F 70% 29.20 in 10.0 mi East 8.1 mph - N/A   Overcast
2:53 AM 39.9 °F 34.5 °F 30.9 °F 70% 29.18 in 10.0 mi ENE 8.1 mph - N/A   Overcast
3:53 AM 41.0 °F 34.3 °F 30.9 °F 67% 29.17 in 10.0 mi NE 11.5 mph 21.9 mph N/A   Overcast
4:53 AM 41.0 °F 34.7 °F 28.9 °F 62% 29.16 in 10.0 mi East 10.4 mph - N/A   Overcast
5:53 AM 41.0 °F 39.0 °F 28.9 °F 62% 29.18 in 10.0 mi SE 3.5 mph - N/A   Overcast
6:53 AM 41.0 °F 38.0 °F 30.0 °F 65% 29.19 in 10.0 mi South 4.6 mph - N/A   Overcast
7:53 AM 39.0 °F - 30.9 °F 73% 29.21 in 10.0 mi Calm Calm - N/A   Overcast
8:53 AM 39.9 °F - 30.0 °F 68% 29.22 in 10.0 mi Calm Calm - N/A   Overcast
9:53 AM 39.0 °F - 28.9 °F 67% 29.24 in 10.0 mi Calm Calm - N/A   Overcast
10:53 AM 42.1 °F - 28.9 °F 60% 29.26 in 10.0 mi Calm Calm - N/A   Overcast
11:53 AM 39.9 °F 37.8 °F 30.0 °F 68% 29.28 in 10.0 mi SW 3.5 mph - N/A   Overcast
12:53 PM 41.0 °F - 30.0 °F 65% 29.29 in 10.0 mi Calm Calm - N/A   Overcast
1:53 PM 43.0 °F - 30.0 °F 60% 29.30 in 10.0 mi Calm Calm - N/A   Scattered Clouds
2:53 PM 42.1 °F 38.4 °F 30.0 °F 62% 29.31 in 10.0 mi South 5.8 mph - N/A   Scattered Clouds
3:53 PM 41.0 °F 36.4 °F 30.0 °F 65% 29.32 in 10.0 mi SSW 6.9 mph - N/A   Scattered Clouds
4:53 PM 39.9 °F 37.8 °F 30.9 °F 70% 29.34 in 10.0 mi Variable 3.5 mph - N/A   Scattered Clouds
5:53 PM 37.0 °F - 30.0 °F 76% 29.35 in 10.0 mi Calm Calm - N/A   Scattered Clouds
6:53 PM 37.0 °F - 28.9 °F 73% 29.37 in 10.0 mi Calm Calm - N/A   Scattered Clouds
7:53 PM 33.1 °F - 28.0 °F 82% 29.39 in 10.0 mi Calm Calm - N/A   Scattered Clouds
8:53 PM 33.1 °F - 27.0 °F 78% 29.41 in 10.0 mi Calm Calm - N/A   Partly Cloudy
9:53 PM 32.0 °F - 27.0 °F 82% 29.43 in 10.0 mi Calm Calm - N/A   Clear
10:53 PM 32.0 °F - 27.0 °F 82% 29.44 in 10.0 mi Calm Calm - N/A   Mostly Cloudy
11:53 PM 32.0 °F - 28.0 °F 85% 29.45 in 10.0 mi Calm Calm - N/A   Scattered Clouds